Time,TemperatureF,DewpointF,PressureIn,WindDirection,WindDirectionDegrees,WindSpeedMPH,WindSpeedGustMPH,Humidity,HourlyPrecipIn,Conditions,Clouds,dailyrainin,SoftwareType,DateUTC
2013-05-17 00:00:00,64.6,60.3,29.60,West,266,8.0,33.0,86,0.00,RA,,0.00,WeatherDisplay:10.37,2013-05-16 22:00:00,
2013-05-17 00:15:00,64.4,60.4,29.61,West,264,12.0,18.0,87,0.00,CLR,,0.00,WeatherDisplay:10.37,2013-05-16 22:15:00,
2013-05-17 00:30:00,64.2,60.3,29.62,West,269,9.0,21.0,87,0.00,CLR,,0.00,WeatherDisplay:10.37,2013-05-16 22:30:00,
2013-05-17 00:45:00,64.2,59.9,29.63,West,268,9.0,20.0,86,0.00,CLR,,0.00,WeatherDisplay:10.37,2013-05-16 22:45:00,
2013-05-17 01:00:00,64.1,60.2,29.63,West,270,6.0,17.0,87,0.00,CLR,,0.00,WeatherDisplay:10.37,2013-05-16 23:00:00,
2013-05-17 01:15:00,63.9,59.3,29.65,West,271,8.0,20.0,85,0.00,CLR,,0.00,WeatherDisplay:10.37,2013-05-16 23:15:00,
2013-05-17 01:30:00,63.8,58.5,29.65,West,271,9.0,18.0,83,0.00,CLR,,0.00,WeatherDisplay:10.37,2013-05-16 23:30:00,
2013-05-17 01:45:00,63.8,57.1,29.65,West,278,9.0,16.0,79,0.00,CLR,,0.00,WeatherDisplay:10.37,2013-05-16 23:45:00,
2013-05-17 02:00:00,63.8,56.4,29.65,West,276,8.0,16.0,77,0.00,CLR,,0.00,WeatherDisplay:10.37,2013-05-17 00:00:00,
2013-05-17 02:15:00,63.6,56.6,29.65,West,278,7.0,21.0,78,0.00,CLR,,0.00,WeatherDisplay:10.37,2013-05-17 00:15:00,
2013-05-17 02:30:00,63.4,57.5,29.64,West,280,6.0,21.0,81,0.00,CLR,,0.00,WeatherDisplay:10.37,2013-05-17 00:30:00,
2013-05-17 02:45:00,63.4,58.1,29.64,West,268,2.0,21.0,83,0.00,CLR,,0.00,WeatherDisplay:10.37,2013-05-17 00:45:00,
2013-05-17 03:00:00,63.4,58.8,29.64,West,263,6.0,21.0,85,0.00,CLR,,0.00,WeatherDisplay:10.37,2013-05-17 01:00:00,
2013-05-17 03:15:00,63.6,59.6,29.64,WSW,256,9.0,21.0,87,0.00,CLR,,0.00,WeatherDisplay:10.37,2013-05-17 01:15:00,
2013-05-17 03:30:00,63.6,60.3,29.64,WSW,250,12.0,21.0,89,0.00,CLR,,0.00,WeatherDisplay:10.37,2013-05-17 01:30:00,
2013-05-17 03:45:00,62.9,59.9,29.64,West,267,8.0,21.0,90,0.00,CLR,,0.00,WeatherDisplay:10.37,2013-05-17 01:45:00,
2013-05-17 04:00:00,62.8,59.8,29.64,West,262,8.0,21.0,90,0.00,CLR,,0.00,WeatherDisplay:10.37,2013-05-17 02:00:00,
2013-05-17 04:15:00,63.0,60.0,29.65,West,262,8.0,21.0,90,0.00,CLR,,0.00,WeatherDisplay:10.37,2013-05-17 02:15:00,
2013-05-17 04:30:00,62.7,59.8,29.65,West,268,9.0,21.0,90,0.00,CLR,,0.00,WeatherDisplay:10.37,2013-05-17 02:30:00,
2013-05-17 04:45:00,62.5,59.8,29.65,West,271,9.0,21.0,91,0.00,CLR,,0.00,WeatherDisplay:10.37,2013-05-17 02:45:00,
2013-05-17 05:00:00,62.2,59.2,29.65,West,261,7.0,21.0,90,0.00,CLR,,0.00,WeatherDisplay:10.37,2013-05-17 03:00:00,
2013-05-17 05:15:00,62.2,59.2,29.65,West,262,10.0,21.0,90,0.00,CLR,,0.00,WeatherDisplay:10.37,2013-05-17 03:15:00,
2013-05-17 05:30:00,61.7,58.4,29.66,WSW,256,8.0,21.0,89,0.00,CLR,,0.00,WeatherDisplay:10.37,2013-05-17 03:30:00,
2013-05-17 05:45:00,62.0,58.7,29.66,West,260,10.0,21.0,89,0.00,CLR,,0.00,WeatherDisplay:10.37,2013-05-17 03:45:00,
2013-05-17 06:00:00,61.9,58.6,29.66,West,264,9.0,21.0,89,0.00,CLR,,0.00,WeatherDisplay:10.37,2013-05-17 04:00:00,
2013-05-17 06:15:00,62.0,59.0,29.67,West,259,13.0,21.0,90,0.00,CLR,,0.00,WeatherDisplay:10.37,2013-05-17 04:15:00,
2013-05-17 06:30:00,62.2,59.2,29.67,WSW,257,7.0,21.0,90,0.00,CLR,,0.00,WeatherDisplay:10.37,2013-05-17 04:30:00,
2013-05-17 06:45:00,62.2,58.9,29.69,West,262,17.0,28.0,89,0.00,CLR,,0.00,WeatherDisplay:10.37,2013-05-17 04:45:00,
2013-05-17 07:00:00,62.3,59.0,29.69,WSW,257,12.0,29.0,89,0.00,CLR,,0.00,WeatherDisplay:10.37,2013-05-17 05:00:00,
2013-05-17 07:15:00,62.3,59.0,29.69,West,267,13.0,29.0,89,0.00,CLR,,0.00,WeatherDisplay:10.37,2013-05-17 05:15:00,
2013-05-17 07:30:00,62.6,59.0,29.70,WSW,252,13.0,29.0,88,0.00,CLR,,0.00,WeatherDisplay:10.37,2013-05-17 05:30:00,
2013-05-17 07:45:00,62.7,59.1,29.71,WSW,256,15.0,29.0,88,0.00,CLR,,0.00,WeatherDisplay:10.37,2013-05-17 05:45:00,
2013-05-17 08:00:00,62.8,58.9,29.72,West,263,14.0,29.0,87,0.00,CLR,,0.00,WeatherDisplay:10.37,2013-05-17 06:00:00,
2013-05-17 08:15:00,63.0,59.7,29.72,WSW,255,16.0,29.0,89,0.00,CLR,,0.00,WeatherDisplay:10.37,2013-05-17 06:15:00,
2013-05-17 08:30:00,63.3,59.4,29.75,West,277,15.0,29.0,87,0.00,CLR,,0.00,WeatherDisplay:10.37,2013-05-17 06:30:00,
2013-05-17 08:45:00,62.7,58.4,29.73,West,268,10.0,29.0,86,0.00,CLR,,0.00,WeatherDisplay:10.37,2013-05-17 06:45:00,
2013-05-17 09:00:00,62.5,59.2,29.75,West,264,13.0,29.0,89,0.00,CLR,,0.00,WeatherDisplay:10.37,2013-05-17 07:00:00,
2013-05-17 09:15:00,62.5,59.5,29.76,West,269,16.0,29.0,90,0.00,CLR,,0.00,WeatherDisplay:10.37,2013-05-17 07:15:00,
2013-05-17 09:30:00,62.2,58.9,29.78,West,273,13.0,29.0,89,0.00,CLR,,0.00,WeatherDisplay:10.37,2013-05-17 07:30:00,
2013-05-17 09:45:00,61.5,57.6,29.78,West,273,9.0,29.0,87,0.02,RA,,0.02,WeatherDisplay:10.37,2013-05-17 07:45:00,
2013-05-17 10:00:00,60.5,55.6,29.76,West,267,9.0,29.0,84,0.01,RA,,0.03,WeatherDisplay:10.37,2013-05-17 08:00:00,
2013-05-17 10:15:00,59.7,51.8,29.77,WNW,283,8.0,30.0,75,0.01,CLR,,0.04,WeatherDisplay:10.37,2013-05-17 08:15:00,
2013-05-17 10:30:00,61.3,52.9,29.77,West,275,3.0,30.0,74,0.00,CLR,,0.04,WeatherDisplay:10.37,2013-05-17 08:30:00,
2013-05-17 10:45:00,62.0,54.0,29.78,West,276,6.0,30.0,75,0.00,CLR,,0.04,WeatherDisplay:10.37,2013-05-17 08:45:00,
2013-05-17 11:00:00,62.6,56.3,29.79,West,270,6.0,30.0,80,0.00,CLR,,0.04,WeatherDisplay:10.37,2013-05-17 09:00:00,
2013-05-17 11:15:00,62.5,56.9,29.79,WSW,257,8.0,30.0,82,0.00,CLR,,0.04,WeatherDisplay:10.37,2013-05-17 09:15:00,
2013-05-17 11:30:00,63.0,57.1,29.80,West,260,10.0,30.0,81,0.00,CLR,,0.04,WeatherDisplay:10.37,2013-05-17 09:30:00,
2013-05-17 11:45:00,63.4,56.1,29.81,West,259,15.0,30.0,77,0.00,CLR,,0.04,WeatherDisplay:10.37,2013-05-17 09:45:00,
2013-05-17 12:00:00,64.2,57.2,29.81,WSW,258,15.0,30.0,78,0.00,CLR,,0.04,WeatherDisplay:10.37,2013-05-17 10:00:00,
2013-05-17 12:15:00,64.2,57.9,29.81,West,259,10.0,30.0,80,0.00,CLR,,0.04,WeatherDisplay:10.37,2013-05-17 10:15:00,
2013-05-17 12:30:00,64.3,54.3,29.82,West,259,13.0,30.0,70,0.00,CLR,,0.04,WeatherDisplay:10.37,2013-05-17 10:30:00,
2013-05-17 12:45:00,64.7,52.3,29.82,West,263,14.0,30.0,64,0.00,CLR,,0.04,WeatherDisplay:10.37,2013-05-17 10:45:00,
2013-05-17 13:00:00,64.9,52.4,29.83,West,261,15.0,31.0,64,0.00,CLR,,0.04,WeatherDisplay:10.37,2013-05-17 11:00:00,
2013-05-17 13:15:00,64.7,53.1,29.83,West,261,10.0,31.0,66,0.00,CLR,,0.04,WeatherDisplay:10.37,2013-05-17 11:15:00,
2013-05-17 13:30:00,64.7,54.7,29.83,West,266,13.0,31.0,70,0.00,CLR,,0.04,WeatherDisplay:10.37,2013-05-17 11:30:00,
2013-05-17 13:45:00,64.1,54.1,29.83,West,262,15.0,31.0,70,0.00,CLR,,0.04,WeatherDisplay:10.37,2013-05-17 11:45:00,
2013-05-17 14:00:00,64.2,55.0,29.84,WSW,258,12.0,31.0,72,0.00,CLR,,0.04,WeatherDisplay:10.37,2013-05-17 12:00:00,
2013-05-17 14:15:00,64.2,53.4,29.84,West,260,13.0,31.0,68,0.00,CLR,,0.04,WeatherDisplay:10.37,2013-05-17 12:15:00,
2013-05-17 14:30:00,64.1,53.7,29.85,WSW,257,13.0,31.0,69,0.00,CLR,,0.04,WeatherDisplay:10.37,2013-05-17 12:30:00,
2013-05-17 14:45:00,64.2,53.8,29.85,West,263,13.0,31.0,69,0.00,CLR,,0.04,WeatherDisplay:10.37,2013-05-17 12:45:00,
2013-05-17 15:00:00,64.4,54.4,29.86,West,270,9.0,31.0,70,0.00,CLR,,0.04,WeatherDisplay:10.37,2013-05-17 13:00:00,
2013-05-17 15:15:00,63.9,53.2,29.86,WNW,284,10.0,31.0,68,0.00,CLR,,0.04,WeatherDisplay:10.37,2013-05-17 13:15:00,
2013-05-17 15:30:00,64.4,53.6,29.86,West,266,14.0,31.0,68,0.00,CLR,,0.04,WeatherDisplay:10.37,2013-05-17 13:30:00,
2013-05-17 15:45:00,64.2,53.8,29.85,West,262,9.0,31.0,69,0.00,CLR,,0.04,WeatherDisplay:10.37,2013-05-17 13:45:00,
2013-05-17 16:00:00,64.0,52.4,29.85,West,260,12.0,31.0,66,0.00,CLR,,0.04,WeatherDisplay:10.37,2013-05-17 14:00:00,
2013-05-17 16:15:00,64.6,52.1,29.85,WSW,256,12.0,31.0,64,0.00,CLR,,0.04,WeatherDisplay:10.37,2013-05-17 14:15:00,
2013-05-17 16:30:00,63.9,51.5,29.85,West,262,13.0,31.0,64,0.00,CLR,,0.04,WeatherDisplay:10.37,2013-05-17 14:30:00,
2013-05-17 16:45:00,64.1,51.7,29.86,WSW,254,10.0,31.0,64,0.00,CLR,,0.04,WeatherDisplay:10.37,2013-05-17 14:45:00,
2013-05-17 17:00:00,63.9,51.5,29.86,West,264,14.0,31.0,64,0.00,CLR,,0.04,WeatherDisplay:10.37,2013-05-17 15:00:00,
2013-05-17 17:15:00,64.1,51.7,29.86,West,267,12.0,31.0,64,0.00,CLR,,0.04,WeatherDisplay:10.37,2013-05-17 15:15:00,
2013-05-17 17:30:00,64.2,51.7,29.86,West,269,13.0,31.0,64,0.00,CLR,,0.04,WeatherDisplay:10.37,2013-05-17 15:30:00,
2013-05-17 17:45:00,63.8,52.2,29.86,West,262,10.0,31.0,66,0.00,CLR,,0.04,WeatherDisplay:10.37,2013-05-17 15:45:00,
2013-05-17 18:00:00,63.6,52.0,29.86,West,263,10.0,31.0,66,0.00,CLR,,0.04,WeatherDisplay:10.37,2013-05-17 16:00:00,
2013-05-17 18:15:00,63.8,52.2,29.86,West,267,8.0,31.0,66,0.00,CLR,,0.04,WeatherDisplay:10.37,2013-05-17 16:15:00,
2013-05-17 18:30:00,63.5,52.4,29.87,West,269,12.0,31.0,67,0.00,CLR,,0.04,WeatherDisplay:10.37,2013-05-17 16:30:00,
2013-05-17 18:45:00,63.4,51.8,29.87,West,264,10.0,31.0,66,0.00,CLR,,0.04,WeatherDisplay:10.37,2013-05-17 16:45:00,
2013-05-17 19:00:00,63.2,52.1,29.88,West,266,10.0,31.0,67,0.00,CLR,,0.04,WeatherDisplay:10.37,2013-05-17 17:00:00,
2013-05-17 19:15:00,63.0,52.3,29.88,West,266,9.0,31.0,68,0.00,CLR,,0.04,WeatherDisplay:10.37,2013-05-17 17:15:00,
2013-05-17 19:30:00,63.0,52.7,29.89,West,272,8.0,31.0,69,0.00,CLR,,0.04,WeatherDisplay:10.37,2013-05-17 17:30:00,
2013-05-17 19:45:00,62.5,51.8,29.90,West,280,10.0,31.0,68,0.00,CLR,,0.04,WeatherDisplay:10.37,2013-05-17 17:45:00,
2013-05-17 20:00:00,62.2,50.7,29.90,West,280,12.0,31.0,66,0.00,CLR,,0.04,WeatherDisplay:10.37,2013-05-17 18:00:00,
2013-05-17 20:15:00,61.9,51.6,29.90,WNW,283,7.0,31.0,69,0.00,CLR,,0.04,WeatherDisplay:10.37,2013-05-17 18:15:00,
2013-05-17 20:30:00,61.9,52.0,29.91,West,279,8.0,31.0,70,0.00,CLR,,0.04,WeatherDisplay:10.37,2013-05-17 18:30:00,
2013-05-17 20:45:00,61.9,51.6,29.91,West,273,7.0,31.0,69,0.00,CLR,,0.04,WeatherDisplay:10.37,2013-05-17 18:45:00,
2013-05-17 21:00:00,61.7,51.4,29.92,WNW,287,12.0,31.0,69,0.00,CLR,,0.04,WeatherDisplay:10.37,2013-05-17 19:00:00,
2013-05-17 21:15:00,61.5,51.2,29.92,West,278,10.0,31.0,69,0.00,CLR,,0.04,WeatherDisplay:10.37,2013-05-17 19:15:00,
2013-05-17 21:30:00,61.4,50.7,29.93,WNW,283,9.0,31.0,68,0.00,CLR,,0.04,WeatherDisplay:10.37,2013-05-17 19:30:00,
2013-05-17 21:45:00,61.4,50.7,29.93,West,277,9.0,31.0,68,0.00,CLR,,0.04,WeatherDisplay:10.37,2013-05-17 19:45:00,
2013-05-17 22:00:00,61.2,50.6,29.94,WNW,284,9.0,31.0,68,0.00,CLR,,0.04,WeatherDisplay:10.37,2013-05-17 20:00:00,
2013-05-17 22:15:00,61.2,50.9,29.94,NW,305,2.0,31.0,69,0.00,CLR,,0.04,WeatherDisplay:10.37,2013-05-17 20:15:00,
2013-05-17 22:30:00,61.1,51.2,29.94,WNW,293,2.0,31.0,70,0.00,CLR,,0.04,WeatherDisplay:10.37,2013-05-17 20:30:00,
2013-05-17 22:45:00,61.1,51.2,29.95,WNW,291,5.0,31.0,70,0.00,CLR,,0.04,WeatherDisplay:10.37,2013-05-17 20:45:00,
2013-05-17 23:00:00,60.9,51.0,29.95,WNW,290,5.0,31.0,70,0.00,CLR,,0.04,WeatherDisplay:10.37,2013-05-17 21:00:00,
2013-05-17 23:15:00,60.8,51.0,29.95,WNW,290,6.0,31.0,70,0.00,CLR,,0.04,WeatherDisplay:10.37,2013-05-17 21:15:00,
2013-05-17 23:30:00,60.8,51.3,29.96,WNW,288,7.0,31.0,71,0.00,CLR,,0.04,WeatherDisplay:10.37,2013-05-17 21:30:00,
2013-05-17 23:45:00,60.8,51.3,29.97,West,280,3.0,31.0,71,0.00,CLR,,0.04,WeatherDisplay:10.37,2013-05-17 21:45:00,